Location: Bartshausen
(51.8454°N, 9.8167°E)
Time: 22:53:11
(UTC+00:00)

Iridium 4 Rocket - Pass Details

Date: 24 February 2026
Orbit: 579 x 887 km, 86.9° (Epoch: 11 March)

Event Time Altitude Azimuth Distance (km) Brightness Sun altitude
Rises 20:11:30 0° 341° (NNW) 2,941 7.2 -30.9°
Reaches altitude 10° 20:15:03 10° 311° (NW) 1,972 6.5 -31.4°
Maximum altitude 20:16:45 12° 288° (WNW) 1,807 6.2 -31.6°
Drops below altitude 10° 20:18:25 10° 264° (W) 1,928 6.2 -31.8°
Sets 20:21:48 0° 234° (SW) 2,797 6.7 -32.3°
